Showing default

LEMUR-2 KATIE, 67387

Orbit data source: Space-Track

LEMUR-2 KATIE, 67387 is a payload satellite owned by Spire/Lux (US) in SSO that was launched on Sun, 11 Jan 2026 UTC via an FALCON 9 launch vehicle from the Air Force Western Test Range (AFWTR). Payload-class satellites include a variety of spacecraft equipped with specific instruments for various scientific and technological missions. These include communications satellites like Starlink; space stations such as the ISS; scientific satellites like the Hubble; Earth observation satellites from companies like Planet Labs, Umbra, and HawkEye 360; GPS; miniature CubeSats for education and research; and military/defense satellites.

Loading next visibility...
Identifier
67387, 2026-004AA
Orbit
SSO
Country
Flag of USUS
Related business
Manufacturer
Spire/Glasgow
Mission
Operational Commercial Com/MetRO
Bus & Motor
CUBESAT 3U, Unknown motor
Mass
4.6 kg wet, 4.6 kg dry
Launch date (UTC)
2026-01-11 (4 months ago)
Launch vehicle
FALCON 9
Launch site
Air Force Western Test Range (AFWTR)
Object type
Payload
Rocket body
Debris
Shape & HBR
Box + 2 Pan, 0.2 m
Radar Cross Section
0.054 m²

Expand to show TLE details & history
Last TLE update: 7 hours ago

TLE from 7 hours ago
0 LEMUR-2 KATIE
1 67387U 26004AA  26146.53044412  .00003320  00000-0  35108-3 0  9993
2 67387  97.8036 145.8174 0003911 137.8754 222.2765 14.89871102 20082
Epoch: 2026-05-26T12:43Z
TLE epoch observation values (Epoch: 2026-05-26T12:43:50.371Z)
Latitude
-0.00003°
Longitude
70.75497°
Altitude
603.396 km
Speed
7.557 km/s
True Right ascension
09h 43m 16s
True Declination
0° 00' 00"
Sunlit
Object was in daylight at epoch
Visualization orbit readout
Latitude
Unknown
Longitude
Unknown
Altitude
Unknown
Speed
Unknown
Apparent Right ascension
Unknown
Apparent Declination
Unknown
Sunlit
N/A
Visualization observer readout
Local Sidereal Time
04:33:05
Azimuth
Unknown
Elevation
Unknown
Doppler factor
Unknown
Orbital elements
Apogee altitude
598.089 km
Perigee altitude
592.634 km
Semi-major axis
6,973.498 km
Eccentricity
0.00039
Inclination
97.8036°
RAAN
145.8174°
Arg. of periapsis
137.8754°
True anomaly
222.24636°
Mean anomaly
222.2765°
Eccentric anomaly
222.26143°
Mean motion
3.72707 °/min
Orbital period
96.59 mins
BSTAR
0.00035108
Loading maneuver chart data...
Computing Atmospheric mass density...
Loading historical data...
Loading historical data...
Loading historical data...
Loading historical data...
Loading historical data...
Loading historical data...
Loading historical data...

Documentation

Showing up to 5 results
|